{"data":{"norad_id":55588,"intl_designator":"2023-020V","name":"STARLINK-5728","alt_names":[],"object_type":"PAYLOAD","status":"ACTIVE","operator":null,"country":"US","launch_date":"2023-02-12","launch_site_code":"AFETR","launch_vehicle":null,"mission":null,"orbit_class":"UNKNOWN","rcs_meters":null,"size_class":null,"mass_kg":null,"dimensions":null,"purposes":["comms"],"wikipedia_slug":null,"has_3d_model":false,"image_url":null,"decayed_at":null,"tle_current":{"epoch":"2026-05-24T19:37:11.796096Z","epoch_age_seconds":94338,"freshness":"FRESH","line1":"1 55588U 23020V   26144.81749764 -.00000186  00000+0  27879-5 0  9994","line2":"2 55588  43.0048 295.4397 0001893 275.8145  84.2491 15.27574357180557","mean_motion":15.27574357,"eccentricity":0.0001893,"inclination_deg":43.0048,"raan_deg":295.4397,"arg_perigee_deg":275.8145,"mean_anomaly_deg":84.2491,"bstar":2.7879e-6,"rev_number":18055,"period_min":94.267096943681,"perigee_km":481.7671675371,"apogee_km":484.36481899035,"semimajor_km":6861.2029932637,"source":"CELESTRAK","updated_at":"2026-05-25T13:38:17.838249Z"}}}